• In Russia
  • List of Countries
  • For 7 days
  • Water Temperature
  • Satellite Maps
  • Weather Map
  • Weather Widgets
  • user-avatar
    Login

    Hourly Weather Oktyabr

    Today, 19 July, Thursday

    Time Temperature Precipitation Wind Pressure Humidity
    00:00 +19°C° 0 mm 4 mps 734 mmHg 94%
    01:00 +18°C° 0 mm 4 mps 734 mmHg 95%
    02:00 +18°C° 0 mm 3 mps 735 mmHg 95%
    03:00 +18°C° 0 mm 3 mps 735 mmHg 97%
    04:00 +18°C° 0.5 mm 3 mps 735 mmHg 96%
    05:00 +18°C° 0.5 mm 4 mps 735 mmHg 95%
    06:00 +19°C° 0.5 mm 4 mps 735 mmHg 94%
    07:00 +20°C° 0.5 mm 4 mps 735 mmHg 92%
    08:00 +20°C° 0.5 mm 4 mps 735 mmHg 89%
    09:00 +21°C° 0 mm 4 mps 735 mmHg 86%
    10:00 +22°C° 0.3 mm 4 mps 736 mmHg 83%
    11:00 +23°C° 0.3 mm 4 mps 736 mmHg 81%
    12:00 +25°C° 0.3 mm 4 mps 736 mmHg 78%
    13:00 +25°C° 0.8 mm 4 mps 736 mmHg 76%
    14:00 +26°C° 0.8 mm 4 mps 736 mmHg 74%
    15:00 +27°C° 0.8 mm 4 mps 736 mmHg 72%
    16:00 +26°C° 0.6 mm 4 mps 736 mmHg 75%
    17:00 +26°C° 0.6 mm 3 mps 737 mmHg 78%
    18:00 +25°C° 0.6 mm 3 mps 737 mmHg 81%
    19:00 +24°C° 1.2 mm 3 mps 737 mmHg 84%
    20:00 +22°C° 1.2 mm 3 mps 737 mmHg 86%
    21:00 +21°C° 1.2 mm 3 mps 737 mmHg 89%
    22:00 +20°C° 0.1 mm 3 mps 737 mmHg 90%
    23:00 +20°C° 0.1 mm 3 mps 737 mmHg 91%

    Tomorrow, 20 July, Friday

    Time Temperature Precipitation Wind Pressure Humidity
    00:00 +20°C° 0.1 mm 3 mps 737 mmHg 93%
    01:00 +19°C° 0 mm 3 mps 737 mmHg 93%
    02:00 +19°C° 0 mm 3 mps 737 mmHg 94%
    03:00 +19°C° 0 mm 3 mps 738 mmHg 94%
    04:00 +19°C° 0 mm 3 mps 738 mmHg 93%
    05:00 +20°C° 0 mm 3 mps 738 mmHg 92%
    06:00 +20°C° 0 mm 3 mps 738 mmHg 91%
    07:00 +22°C° 0.3 mm 3 mps 738 mmHg 86%
    08:00 +23°C° 0.3 mm 4 mps 738 mmHg 82%
    09:00 +25°C° 0.3 mm 4 mps 738 mmHg 77%
    10:00 +26°C° 0.6 mm 4 mps 738 mmHg 74%
    11:00 +27°C° 0.6 mm 4 mps 738 mmHg 71%
    12:00 +28°C° 0.6 mm 4 mps 738 mmHg 68%
    13:00 +28°C° 0.4 mm 4 mps 738 mmHg 66%
    14:00 +29°C° 0.4 mm 4 mps 738 mmHg 64%
    15:00 +29°C° 0.4 mm 4 mps 738 mmHg 61%
    16:00 +28°C° 1.1 mm 3 mps 738 mmHg 68%
    17:00 +27°C° 1.1 mm 3 mps 738 mmHg 75%
    18:00 +26°C° 1.1 mm 3 mps 738 mmHg 82%
    19:00 +25°C° 0 mm 3 mps 738 mmHg 84%
    20:00 +24°C° 0 mm 2 mps 739 mmHg 87%
    21:00 +23°C° 0 mm 2 mps 739 mmHg 89%
    22:00 +21°C° 0 mm 2 mps 739 mmHg 91%
    23:00 +21°C° 0 mm 2 mps 739 mmHg 92%

    Day after tomorrow, 21 July, Saturday

    Time Temperature Precipitation Wind Pressure Humidity
    00:00 +20°C° 0 mm 2 mps 739 mmHg 93%
    01:00 +20°C° 0.1 mm 2 mps 739 mmHg 93%
    02:00 +20°C° 0.1 mm 2 mps 739 mmHg 94%
    03:00 +19°C° 0.1 mm 2 mps 739 mmHg 95%
    04:00 +19°C° 0 mm 2 mps 739 mmHg 93%
    05:00 +20°C° 0 mm 3 mps 739 mmHg 92%
    06:00 +20°C° 0 mm 3 mps 739 mmHg 91%
    07:00 +22°C° 0 mm 3 mps 739 mmHg 86%
    08:00 +24°C° 0 mm 3 mps 739 mmHg 82%
    09:00 +26°C° 0 mm 3 mps 739 mmHg 77%
    10:00 +26°C° 0.8 mm 3 mps 739 mmHg 74%
    11:00 +27°C° 0.8 mm 4 mps 739 mmHg 71%
    12:00 +28°C° 0.8 mm 4 mps 739 mmHg 68%
    13:00 +28°C° 1 mm 4 mps 739 mmHg 69%
    14:00 +28°C° 1 mm 4 mps 739 mmHg 69%
    15:00 +28°C° 1 mm 4 mps 739 mmHg 70%
    16:00 +28°C° 0.4 mm 4 mps 739 mmHg 74%
    17:00 +27°C° 0.4 mm 3 mps 739 mmHg 77%
    18:00 +27°C° 0.4 mm 3 mps 739 mmHg 80%
    19:00 +25°C° 0 mm 3 mps 739 mmHg 84%
    20:00 +24°C° 0 mm 2 mps 739 mmHg 88%
    21:00 +23°C° 0 mm 2 mps 739 mmHg 92%
    22:00 +21°C° 0.1 mm 2 mps 739 mmHg 93%
    23:00 +21°C° 0.1 mm 2 mps 739 mmHg 93%

    22 July, Sunday

    Time Temperature Precipitation Wind Pressure Humidity
    00:00 +20°C° 0.1 mm 2 mps 739 mmHg 94%
    01:00 +20°C° 0 mm 2 mps 739 mmHg 94%
    02:00 +20°C° 0 mm 2 mps 739 mmHg 94%
    03:00 +19°C° 0 mm 2 mps 739 mmHg 95%
    04:00 +19°C° 0 mm 2 mps 739 mmHg 94%
    05:00 +20°C° 0 mm 2 mps 739 mmHg 93%
    06:00 +20°C° 0 mm 2 mps 739 mmHg 92%
    07:00 +22°C° 0.1 mm 3 mps 739 mmHg 88%
    08:00 +24°C° 0.1 mm 3 mps 739 mmHg 84%
    09:00 +25°C° 0.1 mm 3 mps 739 mmHg 80%
    10:00 +26°C° 0.6 mm 4 mps 739 mmHg 76%
    11:00 +27°C° 0.6 mm 4 mps 739 mmHg 72%
    12:00 +28°C° 0.6 mm 5 mps 739 mmHg 69%
    13:00 +28°C° 0.5 mm 5 mps 739 mmHg 71%
    14:00 +28°C° 0.5 mm 5 mps 739 mmHg 73%
    15:00 +28°C° 0.5 mm 5 mps 739 mmHg 74%
    16:00 +27°C° 0.5 mm 4 mps 739 mmHg 76%
    17:00 +27°C° 0.5 mm 4 mps 739 mmHg 78%
    18:00 +27°C° 0.5 mm 4 mps 739 mmHg 80%
    19:00 +25°C° 0.3 mm 4 mps 739 mmHg 84%
    20:00 +23°C° 0.3 mm 4 mps 740 mmHg 87%
    21:00 +22°C° 0.3 mm 4 mps 740 mmHg 91%
    22:00 +22°C° 0 mm 4 mps 740 mmHg 92%
    23:00 +21°C° 0 mm 4 mps 740 mmHg 92%

    23 July, Monday

    Time Temperature Precipitation Wind Pressure Humidity
    00:00 +21°C° 0 mm 4 mps 739 mmHg 93%
    01:00 +20°C° 0 mm 4 mps 739 mmHg 94%
    02:00 +20°C° 0 mm 4 mps 739 mmHg 95%
    03:00 +19°C° 0 mm 4 mps 740 mmHg 95%
    04:00 +20°C° 0 mm 4 mps 740 mmHg 95%
    05:00 +20°C° 0 mm 4 mps 740 mmHg 94%
    06:00 +20°C° 0 mm 5 mps 740 mmHg 93%
    07:00 +21°C° 0 mm 5 mps 740 mmHg 90%
    08:00 +22°C° 0 mm 5 mps 740 mmHg 86%
    09:00 +23°C° 0 mm 5 mps 740 mmHg 82%
    10:00 +25°C° 0.5 mm 5 mps 740 mmHg 80%
    11:00 +26°C° 0.5 mm 6 mps 740 mmHg 77%
    12:00 +27°C° 0.5 mm 6 mps 740 mmHg 74%
    13:00 +27°C° 1 mm 6 mps 740 mmHg 76%
    14:00 +27°C° 1 mm 6 mps 740 mmHg 77%
    15:00 +27°C° 1 mm 6 mps 740 mmHg 78%
    16:00 +26°C° 1.3 mm 6 mps 741 mmHg 81%
    17:00 +24°C° 1.3 mm 6 mps 741 mmHg 83%
    18:00 +23°C° 1.3 mm 6 mps 741 mmHg 86%
    19:00 +22°C° 0.4 mm 5 mps 741 mmHg 87%
    20:00 +21°C° 0.4 mm 5 mps 741 mmHg 88%
    21:00 +20°C° 0.4 mm 5 mps 741 mmHg 88%
    22:00 +20°C° 0.4 mm 5 mps 742 mmHg 88%
    23:00 +19°C° 0.4 mm 5 mps 742 mmHg 87%

    24 July, Tuesday

    Time Temperature Precipitation Wind Pressure Humidity
    00:00 +19°C° 0.4 mm 5 mps 742 mmHg 87%
    01:00 +18°C° 0.2 mm 4 mps 742 mmHg 87%
    02:00 +18°C° 0.2 mm 4 mps 742 mmHg 87%
    03:00 +18°C° 0.2 mm 4 mps 742 mmHg 87%
    04:00 +18°C° 0.3 mm 4 mps 742 mmHg 86%
    05:00 +17°C° 0.3 mm 5 mps 742 mmHg 86%
    06:00 +17°C° 0.3 mm 5 mps 743 mmHg 86%
    07:00 +19°C° 0.2 mm 5 mps 743 mmHg 82%
    08:00 +20°C° 0.2 mm 5 mps 743 mmHg 78%
    09:00 +21°C° 0.2 mm 5 mps 743 mmHg 74%
    10:00 +23°C° 0.4 mm 5 mps 744 mmHg 72%
    11:00 +25°C° 0.4 mm 5 mps 744 mmHg 69%
    12:00 +26°C° 0.4 mm 5 mps 744 mmHg 67%
    13:00 +26°C° 0.2 mm 6 mps 744 mmHg 66%
    14:00 +27°C° 0.2 mm 6 mps 744 mmHg 64%
    15:00 +28°C° 0.2 mm 6 mps 744 mmHg 63%
    16:00 +27°C° 0 mm 5 mps 744 mmHg 66%
    17:00 +26°C° 0 mm 5 mps 744 mmHg 69%
    18:00 +26°C° 0 mm 4 mps 744 mmHg 72%
    19:00 +25°C° 0 mm 4 mps 745 mmHg 74%
    20:00 +22°C° 0 mm 4 mps 745 mmHg 76%
    21:00 +21°C° 0 mm 4 mps 745 mmHg 78%
    22:00 +21°C° 0.1 mm 4 mps 745 mmHg 77%
    23:00 +20°C° 0.1 mm 3 mps 745 mmHg 76%
    Show more